Regional Weather Roundup
Issued by NWS

Home | Current Version | Previous Version | Text Only | Print | Product List | Glossary Off
Versions: 1 2 3 4 5 6 7 8 9 10 11 12 13 14 15 16 17 18 19 20 21 22 23 24 25 26 27 28 29 30 31 32 33 34 35 36 37 38 39 40 41 42 43 44 45 46 47 48 49 50

316
ASUS43 KMKX 280900
RWRWI

WISCONSIN REGIONAL WEATHER ROUNDUP
NATIONAL WEATHER SERVICE MILWAUKEE/SULLIVAN WI
400 AM CDT SAT MAY 28 2016

NOTE: "FAIR" INDICATES FEW OR NO CLOUDS BELOW 12,000 FEET WITH NO
SIGNIFICANT WEATHER AND/OR OBSTRUCTIONS TO VISIBILITY.

WIZ001-002-006>008-014>016-023>028-281000-
NORTHWEST WISCONSIN

CITY           SKY/WX    TMP DP  RH WIND       PRES   REMARKS
SUPERIOR ARPT  FOG       45  45 100 CALM      29.79S VSB 1
ASHLAND        CLOUDY    46  44  93 CALM      29.77S
HAYWARD        FOG       57  56  96 SW3       29.77R VSB 1/4
SIREN          CLOUDY    56  55  96 N5        29.76F
CUMBERLAND     FOG       57  55  94 CALM      29.77R VSB 1/2
RICE LAKE      FOG       58  57  96 CALM      29.77S VSB 1/4
CHETEK         FOG       60  60 100 CALM      29.76S VSB 1/4
LADYSMITH      CLOUDY    66  65  96 S3        29.77R FOG
EAU CLAIRE     NOT AVBL
MENOMONIE      FOG       63  63  99 CALM      29.76R VSB 1/4
NEW RICHMOND   CLOUDY    62  61  99 CALM      29.77R FOG
OSCEOLA        CLOUDY    59  59 100 N3        29.79R FOG
$$

WIZ003>005-009-010-017-018-281000-
NORTH CENTRAL WISCONSIN

CITY           SKY/WX    TMP DP  RH WIND       PRES   REMARKS
MANITOWISH WTR NOT AVBL
ARBOR VITAE    CLOUDY    65  64  94 S3        29.79R
WOODRUFF       CLOUDY    65  64  94 S3        29.79R
RHINELANDER    CLOUDY    66  64  93 SE3       29.80R
EAGLE RIVER      N/A     64  63  99 SE3       29.79S FOG
LAND O LAKES   CLOUDY    64  63  97 SE3       29.81R FOG
PHILLIPS       CLOUDY    64  64 100 CALM      29.77R
TOMAHAWK       CLOUDY    65  63  95 CALM      29.79R FOG
MEDFORD        CLOUDY    65  65 100 S5        29.78R
MERRILL        CLOUDY    66  66 100 S3        29.79R FOG
$$

WIZ029-030-035-036-043>047-281000-
CENTRAL WISCONSIN

CITY           SKY/WX    TMP DP  RH WIND       PRES   REMARKS
WAUSAU         CLOUDY    69  66  90 S7        29.77R
MOSINEE        CLOUDY    64  64 100 SE5       29.79S FOG
MARSHFIELD     CLOUDY    68  65  90 S5        29.77S FOG
STEVENS POINT  CLOUDY    65  65  99 S3        29.79R FOG
WAUPACA        MOCLDY    69  69 100 SE6       29.79R FOG
WAUTOMA        CLOUDY    68  67  96 SE8       29.79S
WISC RAPIDS    CLOUDY    68  65  90 S6        29.78R
CAMP DOUGLAS   CLOUDY    68 N/A N/A E6        29.75F
$$

WIZ011>013-019>022-031-037>040-048>050-281000-
NORTHEAST WISCONSIN

CITY           SKY/WX    TMP DP  RH WIND       PRES   REMARKS
ANTIGO         CLOUDY    64  64 100 S8        29.81R FOG
SHAWANO        CLOUDY    67  65  94 CALM      29.79S FOG
OCONTO         CLOUDY    60  60 100 CALM      29.80R
STURGEON BAY   NOT AVBL
GREEN BAY      CLOUDY    68  65  90 S8        29.80R
MANITOWOC      NOT AVBL
APPLETON       CLOUDY    68  68 100 S12       29.79R
CLINTONVILLE   CLOUDY    64  64 100 CALM      29.79R FOG
OSHKOSH        LGT RAIN  68  65  90 S12G21    29.80R
$$

WIZ032>034-041-042-053>061-281000-
SOUTHWEST WISCONSIN

CITY           SKY/WX    TMP DP  RH WIND       PRES   REMARKS
LA CROSSE      CLOUDY    67  65  93 CALM      29.72F
SPARTA         CLOUDY    64  64 100 CALM      29.76R
VIROQUA        CLOUDY    66  66 100 CALM      29.75F
BOSCOBEL       RAIN      68  66  93 CALM      29.72F FOG
PRAIRIE DU CHI LGT RAIN  67  65  94 CALM      29.72F
PLATTEVILLE    CLOUDY    69  67  96 SE17      29.74F
$$

WIZ056-057-062-063-064-067-068-281000-
SOUTH CENTRAL WISCONSIN

CITY           SKY/WX    TMP DP  RH WIND       PRES   REMARKS
REEDSBURG      LGT RAIN  68  68  99 SE7       29.75F
BARABOO/DELLS  LGT RAIN  68  65  89 S13       29.77S
LONE ROCK      CLOUDY    70  67  90 SE7       29.75F
MINERAL POINT  CLOUDY    68  68 100 SE9       29.75F
MADISON        CLOUDY    68  66  93 S10       29.78F
MIDDLETON      CLOUDY    69  67  91 S8        29.79S
WATERTOWN      CLOUDY    66  66 100 SE6       29.81F
MONROE         CLOUDY    68  64  88 S14G22    29.78S
JANESVILLE     CLOUDY    70  68  94 SE8       29.79F
$$

WIZ051-052-058>065-066-070>072-281000-
SOUTHEAST WISCONSIN

CITY           SKY/WX    TMP DP  RH WIND       PRES   REMARKS
MILWAUKEE      CLOUDY    70  64  81 S9        29.84S
WAUKESHA       CLOUDY    66  63  88 S6        29.84F
MILWAUKEE/TIMM CLOUDY    68  61  77 S6        29.84S
RACINE         CLOUDY    63  59  87 S10       29.87R
BURLINGTON     CLOUDY    68  63  85 S7        29.83S
KENOSHA        CLOUDY    69  64  84 S10       29.85S
FOND DU LAC    LGT RAIN  68  65  90 S13       29.81S
SHEBOYGAN      CLOUDY    64  62  93 S7        29.83S
WEST BEND      CLOUDY    68  63  83 S7        29.84S
JUNEAU         CLOUDY    66  64  94 SE9       29.83S
$$

LSZ147-162-281000-
LAKE SUPERIOR

STATION/POSITION TIME  TEMP    WIND        PRES    WAVE
                       AIR SEA DIR/SP/G            HT/PER
                 (UTC) (F)     (DEG/KT/KT) (MB)    (FT/S)
W MID LAKE BUOY  0750   41 38   60/ 16/ 17 1008.5F   3/ 4
DEVILS ISLAND    0800   43      90/ 16/ 18 1008.5F
SAXON HARBOR     0800   48     320/  3/  4 1007.5F
$$

LMZ867-665-643>646-281000-
LAKE MICHIGAN

STATION/POSITION TIME  TEMP    WIND        PRES    WAVE
                       AIR SEA DIR/SP/G            HT/PER
                 (UTC) (F)     (DEG/KT/KT) (MB)    (FT/S)
CHAMBERS ISLAND  0800   60     120/  4/  7 1009.5
N MID LAKE BUOY  0750   54 46  170/ 12/ 14 1010.3F   1
NORTHPORT PIER   0800   58     150/  9/ 14 1009.8F
SISTER BAY       0850   58     150/ 15/ 20   N/A
ALGOMA LAKESHORE 0817             CALM       N/A
KEWAUNEE LAKESHO 0800   53     170/  7/  9 1009.3R
SHEBOYGAN LAKESH 0800   58     180/ 18/ 20 1010.4R
PORT WASHINGTON  0840   57     190/  6/  9 1011.2S
S MID LAKE BUOY  0750   55 50  150/ 12/ 14 1011.5R   1/ 4
KENOSHA   LAKESH 0800   56     170/ 11/ 13 1010.8S
$$

TC  - TEMPERATURE IN CELSIUS
VSB - VISIBILITY IN STATUTE MILES
WCI - WIND CHILL INDEX
HX  - HEAT INDEX





USA.gov is the U.S. government's official web portal to all federal, state and local government web resources and services.